GW1905 Weather Reports


time (UTC)temp
C
wind
direction
speed
KPH
gust
KPH
rain 1hr
cm
rain 24hr
cm
rain mn
cm
humidity
%
barometer
mb
20260906124608 24 88 1.6 1.6 0.00 0.00 0.00 89 1017.9
20260906124103 24 82 0.0 1.6 0.00 0.00 0.00 90 1017.7
20260906123602 24 83 0.0 3.2 0.00 0.00 0.00 91 1017.7
20260906123057 23 93 1.6 1.6 0.00 0.00 0.00 93 1017.6
20260906122556 23 100 0.0 0.0 0.00 0.00 0.00 95 1017.5
20260906122052 23 100 0.0 0.0 0.00 0.00 0.00 97 1017.6
20260906121548 22 91 0.0 0.0 0.00 0.00 0.00 97 1017.5
20260906121045 22 92 0.0 1.6 0.00 0.00 0.00 98 1017.4
20260906120539 22 105 0.0 1.6 0.00 0.00 0.00 98 1017.4
20260906120037 21 107 0.0 0.0 0.00 0.00 0.00 98 1017.3
20260906115537 21 107 0.0 0.0 0.00 0.00 0.00 99 1017.2
20260906115032 21 107 0.0 0.0 0.00 0.00 0.00 98 1017.2
20260906114526 21 107 0.0 0.0 0.00 0.00 0.00 98 1017.3
20260906114022 21 107 0.0 0.0 0.00 0.00 0.00 98 1017.1
20260906113520 21 107 0.0 0.0 0.00 0.00 0.00 98 1017.0
20260906113016 21 107 0.0 0.0 0.00 0.00 0.00 98 1017.0
20260906112511 21 107 0.0 0.0 0.00 0.00 0.00 98 1016.8
20260906112007 21 107 0.0 1.6 0.00 0.00 0.00 98 1016.8
20260906111501 21 107 0.0 0.0 0.00 0.00 0.00 98 1016.8
20260906110956 21 107 0.0 0.0 0.00 0.00 0.00 98 1016.9
20260906110450 21 107 0.0 1.6 0.00 0.00 0.00 98 1016.9
20260906105949 21 108 0.0 1.6 0.00 0.00 0.00 98 1016.8
20260906105445 21 109 0.0 0.0 0.00 0.00 0.00 98 1016.7
20260906104942 21 109 0.0 1.6 0.00 0.00 0.00 97 1016.8
20260906104440 21 109 0.0 1.6 0.00 0.00 0.00 97 1016.6
20260906103939 21 111 0.0 0.0 0.00 0.00 0.00 97 1016.5
20260906103438 21 111 0.0 1.6 0.00 0.00 0.00 97 1016.6
20260906102933 21 115 0.0 0.0 0.00 0.00 0.00 97 1016.5
20260906102433 21 115 0.0 0.0 0.00 0.00 0.00 97 1016.3
20260906101927 21 115 0.0 0.0 0.00 0.00 0.00 97 1016.3
20260906101423 21 116 0.0 0.0 0.00 0.00 0.00 97 1016.2
20260906100918 21 116 0.0 1.6 0.00 0.00 0.00 96 1016.3
20260906100418 21 115 0.0 1.6 0.00 0.00 0.00 96 1016.3
20260906095912 21 74 0.0 0.0 0.00 0.00 0.00 96 1016.5
20260906095408 21 91 0.0 0.0 0.00 0.00 0.00 96 1016.5
20260906094908 21 81 0.0 3.2 0.00 0.00 0.00 96 1016.5
20260906094403 21 84 0.0 0.0 0.00 0.00 0.00 96 1016.7
20260906093853 21 84 0.0 0.0 0.00 0.00 0.00 96 1016.5
20260906093349 21 84 0.0 0.0 0.00 0.00 0.00 95 1016.4
20260906092849 21 84 0.0 0.0 0.00 0.00 0.00 95 1016.3
20260906092343 21 84 0.0 1.6 0.00 0.00 0.00 95 1016.2
20260906091839 21 67 1.6 1.6 0.00 0.00 0.00 94 1016.2
20260906091335 22 321 1.6 1.6 0.00 0.00 0.00 94 1016.1
20260906090832 22 132 0.0 0.0 0.00 0.00 0.00 93 1016.1
20260906090330 22 181 0.0 0.0 0.00 0.00 0.00 93 1016.0
20260906085825 22 181 1.6 1.6 0.00 0.00 0.00 93 1016.0
20260906085324 22 181 0.0 0.0 0.00 0.00 0.00 92 1016.1
20260906084819 22 180 0.0 0.0 0.00 0.00 0.00 92 1015.9
20260906084318 22 180 0.0 1.6 0.00 0.00 0.00 92 1016.0
20260906083813 22 184 0.0 1.6 0.00 0.00 0.00 92 1015.9
20260906083309 22 182 0.0 0.0 0.00 0.00 0.00 92 1015.8
20260906082803 22 183 0.0 0.0 0.00 0.00 0.00 93 1015.6
20260906082258 22 183 0.0 0.0 0.00 0.00 0.00 93 1015.9
20260906081754 22 182 0.0 0.0 0.00 0.00 0.00 93 1015.6
20260906081249 22 182 0.0 0.0 0.00 0.00 0.00 93 1015.9
20260906080745 22 176 1.6 1.6 0.00 0.00 0.00 93 1015.6
20260906080242 22 181 0.0 1.6 0.00 0.00 0.00 94 1015.7
20260906075735 22 204 0.0 1.6 0.00 0.00 0.00 94 1015.7
20260906075230 22 203 0.0 0.0 0.00 0.00 0.00 93 1015.7
20260906074725 22 204 0.0 0.0 0.00 0.00 0.00 93 1015.7
20260906074225 22 204 0.0 0.0 0.00 0.00 0.00 93 1015.9
20260906073724 22 204 0.0 0.0 0.00 0.00 0.00 93 1016.0
20260906073219 22 205 0.0 0.0 0.00 0.00 0.00 93 1015.9
20260906072715 22 205 0.0 0.0 0.00 0.00 0.00 93 1016.0
20260906072211 22 205 0.0 1.6 0.00 0.00 0.00 93 1015.8
20260906071707 22 209 0.0 0.0 0.00 0.00 0.00 92 1015.9
20260906071206 22 225 0.0 0.0 0.00 0.00 0.00 92 1015.8
20260906070703 22 144 0.0 1.6 0.00 0.00 0.00 92 1015.5
20260906070158 22 145 0.0 1.6 0.00 0.00 0.00 92 1015.9
20260906065658 23 145 0.0 0.0 0.00 0.00 0.00 91 1015.9
20260906065154 23 143 0.0 1.6 0.00 0.00 0.00 91 1015.9
20260906064649 23 174 0.0 3.2 0.00 0.00 0.00 91 1016.0
20260906064144 23 152 0.0 0.0 0.00 0.00 0.00 90 1016.0
20260906063639 23 113 0.0 3.2 0.00 0.00 0.00 90 1015.7
20260906063135 23 173 1.6 3.2 0.00 0.00 0.00 91 1015.7
20260906062631 23 179 1.6 1.6 0.00 0.00 0.00 91 1015.8
20260906062129 23 193 1.6 1.6 0.00 0.00 0.00 90 1015.8
20260906061626 23 226 0.0 1.6 0.00 0.00 0.00 91 1015.9
20260906061125 23 242 1.6 1.6 0.00 0.00 0.00 91 1015.8
20260906060622 23 72 1.6 1.6 0.00 0.00 0.00 90 1015.8
20260906060119 23 176 1.6 4.8 0.00 0.00 0.00 90 1016.0
20260906055615 23 139 0.0 1.6 0.00 0.00 0.00 90 1016.0
20260906055109 23 284 1.6 1.6 0.00 0.00 0.00 90 1015.9
20260906054604 23 171 0.0 1.6 0.00 0.00 0.00 90 1015.8
20260906054059 23 186 1.6 1.6 0.00 0.00 0.00 90 1016.0
20260906053556 23 277 0.0 3.2 0.00 0.00 0.00 90 1015.9
20260906053051 23 183 1.6 3.2 0.00 0.00 0.00 90 1016.0
20260906052546 23 171 1.6 1.6 0.00 0.00 0.00 89 1016.0
20260906052044 23 184 0.0 4.8 0.00 0.00 0.00 88 1015.9
20260906051539 23 186 1.6 3.2 0.00 0.00 0.00 89 1016.0
20260906051034 23 136 0.0 1.6 0.00 0.00 0.00 89 1016.1
20260906050529 23 135 0.0 0.0 0.00 0.00 0.00 90 1016.2
20260906050024 23 182 0.0 0.0 0.00 0.00 0.00 89 1016.1
20260906045522 23 187 0.0 1.6 0.00 0.00 0.00 89 1016.2
20260906045019 23 130 3.2 3.2 0.00 0.00 0.00 90 1016.3
20260906044514 23 159 3.2 4.8 0.00 0.00 0.00 91 1016.4
20260906044010 23 152 4.8 8.0 0.00 0.00 0.00 92 1016.4
20260906043505 23 88 3.2 4.8 0.00 0.00 0.00 93 1016.8
20260906043001 23 222 6.4 8.0 0.00 0.00 0.00 93 1016.8
20260906042459 23 166 4.8 9.7 0.00 0.00 0.00 93 1017.2
20260906041959 23 98 8.0 16.1 0.00 0.00 0.00 92 1017.1
20260906041456 23 86 6.4 11.3 0.00 0.00 0.00 91 1017.4
20260906040955 23 17 1.6 8.0 0.00 0.00 0.00 91 1017.5
20260906040450 23 97 1.6 4.8 0.00 0.00 0.00 90 1017.1
20260906035946 23 91 6.4 12.9 0.00 0.00 0.00 90 1017.6
20260906035441 23 85 1.6 4.8 0.00 0.00 0.00 89 1017.8
20260906034937 23 146 1.6 3.2 0.00 0.00 0.00 90 1017.8
20260906034431 23 189 1.6 1.6 0.00 0.00 0.00 89 1018.1
20260906033927 23 109 3.2 4.8 0.00 0.00 0.00 90 1018.0
20260906033427 23 126 3.2 4.8 0.00 0.00 0.00 91 1018.0
20260906032923 23 20 4.8 9.7 0.00 0.00 0.00 92 1018.1
20260906032419 23 275 4.8 11.3 0.00 0.00 0.00 93 1017.9
20260906031913 23 173 0.0 4.8 0.00 0.00 0.00 93 1017.4
20260906031408 23 38 0.0 3.2 0.00 0.00 0.00 92 1017.3
20260906030903 23 172 0.0 1.6 0.00 0.00 0.00 92 1016.9
20260906030358 23 210 0.0 0.0 0.00 0.00 0.00 91 1016.9
20260906025853 23 246 0.0 3.2 0.00 0.00 0.00 91 1016.7
20260906025347 23 276 3.2 8.0 0.00 0.00 0.00 91 1016.5
20260906024846 23 85 1.6 8.0 0.00 0.00 0.00 89 1016.7
20260906024345 24 55 3.2 12.9 0.00 0.00 0.00 88 1017.0
20260906023841 25 229 4.8 14.5 0.00 0.00 0.00 85 1016.7
20260906023337 26 354 17.7 20.9 0.00 0.00 0.00 81 1017.1
20260906022832 26 312 4.8 9.7 0.00 0.00 0.00 77 1016.9
20260906022326 27 335 4.8 14.5 0.00 0.00 0.00 73 1016.4
20260906021822 28 340 6.4 14.5 0.00 0.00 0.00 72 1016.7
20260906021321 28 332 8.0 11.3 0.00 0.00 0.00 72 1016.7
20260906020816 28 194 0.0 0.0 0.00 0.00 0.00 72 1015.8
20260906020315 28 301 1.6 8.0 0.00 0.00 0.00 73 1015.7
20260906015810 28 265 1.6 3.2 0.00 0.00 0.00 73 1015.1
20260906015308 28 174 1.6 1.6 0.00 0.00 0.00 73 1015.4
20260906014803 28 119 0.0 3.2 0.00 0.00 0.00 73 1015.3
20260906014259 28 168 1.6 1.6 0.00 0.00 0.00 72 1015.0
20260906013754 28 173 0.0 1.6 0.00 0.00 0.00 72 1015.0
20260906013249 28 194 1.6 1.6 0.00 0.00 0.00 71 1014.2
20260906012745 29 177 1.6 3.2 0.00 0.00 0.00 71 1014.3
20260906012240 29 188 1.6 3.2 0.00 0.00 0.00 70 1014.7
20260906011735 29 180 0.0 1.6 0.00 0.00 0.00 70 1014.8
20260906011234 29 168 1.6 3.2 0.00 0.00 0.00 69 1014.7
20260906010730 29 166 0.0 3.2 0.00 0.00 0.00 68 1014.7
20260906010226 29 166 1.6 1.6 0.00 0.00 0.00 68 1014.8
20260906005721 30 168 0.0 0.0 0.00 0.00 0.00 68 1014.8
20260906005220 30 166 0.0 1.6 0.00 0.00 0.00 67 1014.9
20260906004720 30 166 0.0 1.6 0.00 0.00 0.00 66 1014.8
20260906004215 30 166 1.6 3.2 0.00 0.00 0.00 66 1015.1
20260906003710 30 140 0.0 1.6 0.00 0.00 0.00 67 1015.1
20260906003206 30 133 1.6 1.6 0.00 0.00 0.00 67 1015.2
20260906002705 30 124 0.0 0.0 0.00 0.00 0.00 66 1015.2
20260906002200 30 124 0.0 0.0 0.00 0.00 0.00 66 1015.2
20260906001656 30 139 1.6 3.2 0.00 0.00 0.00 65 1015.2
20260906001155 30 92 0.0 0.0 0.00 0.00 0.00 65 1015.1
20260906000651 30 91 0.0 0.0 0.00 0.00 0.00 64 1015.1
20260906000146 31 91 1.6 1.6 0.00 0.00 0.00 63 1015.2
20260905235645 31 81 1.6 1.6 0.00 0.00 0.00 62 1015.3
20260905235140 31 354 4.8 4.8 0.00 0.00 0.00 59 1015.2
20260905234636 32 294 1.6 1.6 0.00 0.00 0.00 60 1015.1
20260905234131 32 325 1.6 3.2 0.00 0.00 0.00 59 1015.1
20260905233626 32 71 0.0 1.6 0.00 0.00 0.00 59 1015.3
20260905233120 32 241 0.0 1.6 0.00 0.00 0.00 57 1015.1
20260905232616 33 164 0.0 0.0 0.00 0.00 0.00 57 1015.3
20260905232111 33 241 0.0 1.6 0.00 0.00 0.00 57 1015.2
20260905231606 33 240 0.0 1.6 0.00 0.00 0.00 56 1014.9
20260905231102 33 242 0.0 1.6 0.00 0.00 0.00 55 1015.1
20260905230603 33 31 0.0 1.6 0.00 0.00 0.00 55 1015.1
20260905230101 33 91 0.0 1.6 0.00 0.00 0.00 54 1014.8
20260905225554 33 239 0.0 1.6 0.00 0.00 0.00 54 1014.8
20260905225049 34 87 0.0 1.6 0.00 0.00 0.00 54 1014.6
20260905224544 34 107 1.6 3.2 0.00 0.00 0.00 54 1014.9
20260905224043 34 137 0.0 3.2 0.00 0.00 0.00 52 1015.0
20260905223541 35 58 1.6 4.8 0.00 0.00 0.00 52 1015.1
20260905223036 35 267 1.6 1.6 0.00 0.00 0.00 52 1014.8
20260905222531 35 109 1.6 3.2 0.00 0.00 0.00 52 1015.1
20260905222026 35 113 1.6 4.8 0.00 0.00 0.00 51 1014.8
20260905221522 35 148 0.0 3.2 0.00 0.00 0.00 51 1015.0
20260905221018 35 285 3.2 4.8 0.00 0.00 0.00 50 1014.6
20260905220514 35 91 3.2 8.0 0.00 0.00 0.00 49 1014.7
20260905220010 35 180 0.0 4.8 0.00 0.00 0.00 49 1014.7
20260905215504 35 158 3.2 4.8 0.00 0.00 0.00 49 1014.8
20260905215000 35 80 3.2 4.8 0.00 0.00 0.00 49 1014.9
20260905214456 35 202 0.0 1.6 0.00 0.00 0.00 50 1014.7
20260905213956 35 93 3.2 4.8 0.00 0.00 0.00 49 1014.7
20260905213452 36 36 1.6 4.8 0.00 0.00 0.00 49 1014.7
20260905212947 36 317 4.8 4.8 0.00 0.00 0.00 47 1014.7
20260905212442 36 171 1.6 1.6 0.00 0.00 0.00 47 1014.7
20260905211941 36 259 1.6 8.0 0.00 0.00 0.00 46 1014.9
20260905211437 35 300 3.2 8.0 0.00 0.00 0.00 47 1014.8
20260905210932 35 122 1.6 3.2 0.00 0.00 0.00 48 1015.0
20260905210427 35 34 1.6 3.2 0.00 0.00 0.00 48 1014.9
20260905205926 36 117 4.8 11.3 0.00 0.00 0.00 48 1015.1
20260905205421 36 100 6.4 9.7 0.00 0.00 0.00 46 1015.2
20260905204920 36 208 0.0 3.2 0.00 0.00 0.00 46 1015.1
20260905204417 36 122 1.6 3.2 0.00 0.00 0.00 46 1015.4
20260905203915 36 195 1.6 1.6 0.00 0.00 0.00 50 1015.5
20260905203411 35 307 3.2 4.8 0.00 0.00 0.00 51 1015.6
20260905202906 36 47 1.6 4.8 0.00 0.00 0.00 48 1015.4
20260905202401 37 133 3.2 8.0 0.00 0.00 0.00 47 1015.5
20260905201856 38 200 1.6 3.2 0.00 0.00 0.00 44 1015.6
20260905201351 38 108 0.0 3.2 0.00 0.00 0.00 43 1015.4
20260905200846 36 185 1.6 1.6 0.00 0.00 0.00 45 1015.8
20260905200342 35 270 0.0 1.6 0.00 0.00 0.00 49 1015.7
20260905195840 36 305 3.2 3.2 0.00 0.00 0.00 47 1015.8
20260905195335 35 74 3.2 4.8 0.00 0.00 0.00 48 1016.0
20260905194831 35 284 0.0 1.6 0.00 0.00 0.00 49 1015.9
20260905194331 35 312 1.6 1.6 0.00 0.00 0.00 49 1016.1
20260905193830 36 69 3.2 8.0 0.00 0.00 0.00 47 1016.2
20260905193325 36 311 8.0 11.3 0.00 0.00 0.00 47 1016.2
20260905192821 37 261 4.8 4.8 0.00 0.00 0.00 46 1016.1
20260905192317 37 309 6.4 8.0 0.00 0.00 0.00 46 1016.2
20260905191815 36 37 6.4 11.3 0.00 0.00 0.00 45 1016.5
20260905191314 36 352 4.8 8.0 0.00 0.00 0.00 47 1016.5
20260905190813 36 318 4.8 9.7 0.00 0.00 0.00 46 1016.7
20260905190313 36 162 1.6 4.8 0.00 0.00 0.00 48 1016.6
20260905185811 36 331 4.8 9.7 0.00 0.00 0.00 47 1016.5
20260905185307 35 315 3.2 9.7 0.00 0.00 0.00 50 1016.6
20260905184801 35 260 0.0 3.2 0.00 0.00 0.00 50 1016.5
20260905184259 35 317 3.2 4.8 0.00 0.00 0.00 51 1016.8
20260905183753 36 357 6.4 11.3 0.00 0.00 0.00 49 1016.7
20260905183248 36 93 4.8 8.0 0.00 0.00 0.00 49 1016.6
20260905182747 36 226 0.0 4.8 0.00 0.00 0.00 47 1016.8
20260905182242 36 193 4.8 9.7 0.00 0.00 0.00 47 1016.9
20260905181738 35 265 3.2 4.8 0.00 0.00 0.00 49 1017.2
20260905181237 35 278 4.8 12.9 0.00 0.00 0.00 52 1017.3
20260905180732 36 272 9.7 16.1 0.00 0.00 0.00 50 1017.1
20260905180227 36 222 1.6 8.0 0.00 0.00 0.00 50 1017.1
20260905175727 36 220 4.8 4.8 0.00 0.00 0.00 50 1017.4
20260905175221 35 97 1.6 4.8 0.00 0.00 0.00 51 1017.3
20260905174716 35 293 6.4 8.0 0.00 0.00 0.00 51 1017.4
20260905174212 35 286 4.8 11.3 0.00 0.00 0.00 53 1017.6
20260905173709 35 262 1.6 8.0 0.00 0.00 0.00 51 1017.7
20260905173204 35 81 1.6 3.2 0.00 0.00 0.00 51 1017.7
20260905172703 35 301 8.0 11.3 0.00 0.00 0.00 52 1017.8
20260905172157 36 295 4.8 8.0 0.00 0.00 0.00 50 1017.8
20260905171653 35 151 1.6 4.8 0.00 0.00 0.00 51 1017.7
20260905171149 35 292 3.2 9.7 0.00 0.00 0.00 55 1017.7
20260905170646 35 279 4.8 9.7 0.00 0.00 0.00 53 1017.7
20260905170141 35 302 6.4 9.7 0.00 0.00 0.00 55 1017.8
20260905165640 35 253 3.2 8.0 0.00 0.00 0.00 53 1017.9
20260905165136 35 90 3.2 4.8 0.00 0.00 0.00 54 1018.0
20260905164631 35 187 0.0 9.7 0.00 0.00 0.00 56 1017.9
20260905164130 35 87 4.8 11.3 0.00 0.00 0.00 54 1017.9
20260905163626 35 301 4.8 8.0 0.00 0.00 0.00 56 1018.0
20260905163123 34 70 3.2 16.1 0.00 0.00 0.00 57 1018.1
20260905162619 33 312 3.2 12.9 0.00 0.00 0.00 56 1018.1
20260905162118 34 333 6.4 9.7 0.00 0.00 0.00 57 1018.1
20260905161617 33 264 4.8 8.0 0.00 0.00 0.00 57 1018.1
20260905161115 33 123 4.8 11.3 0.00 0.00 0.00 56 1018.1
20260905160615 34 327 4.8 8.0 0.00 0.00 0.00 57 1018.3
20260905160109 33 340 1.6 8.0 0.00 0.00 0.00 60 1018.3
20260905155604 33 313 4.8 8.0 0.00 0.00 0.00 59 1018.3
20260905155103 33 341 9.7 11.3 0.00 0.00 0.00 60 1018.4
20260905154557 33 266 8.0 9.7 0.00 0.00 0.00 59 1018.5
20260905154053 33 298 8.0 8.0 0.00 0.00 0.00 59 1018.5
20260905153548 33 294 6.4 11.3 0.00 0.00 0.00 59 1018.4
20260905153048 33 248 4.8 4.8 0.00 0.00 0.00 60 1018.4
20260905152543 33 308 4.8 4.8 0.00 0.00 0.00 59 1018.5
20260905152038 33 319 4.8 9.7 0.00 0.00 0.00 60 1018.6
20260905151533 32 333 4.8 8.0 0.00 0.00 0.00 59 1018.5
20260905151029 32 307 4.8 8.0 0.00 0.00 0.00 60 1018.4
20260905150524 32 281 1.6 9.7 0.00 0.00 0.00 62 1018.5
20260905150021 32 337 1.6 9.7 0.00 0.00 0.00 61 1018.6
20260905145515 32 233 6.4 9.7 0.00 0.00 0.00 60 1018.6
20260905145015 32 276 1.6 1.6 0.00 0.00 0.00 63 1018.9
20260905144510 31 32 0.0 8.0 0.00 0.00 0.00 67 1018.5
20260905144009 31 307 3.2 9.7 0.00 0.00 0.00 66 1018.7
20260905143508 31 2 6.4 9.7 0.00 0.00 0.00 66 1018.6
20260905143003 31 290 1.6 4.8 0.00 0.00 0.00 67 1018.7
20260905142501 30 285 1.6 4.8 0.00 0.00 0.00 70 1018.7
20260905141957 30 348 4.8 8.0 0.00 0.00 0.00 70 1018.9
20260905141452 30 297 1.6 3.2 0.00 0.00 0.00 70 1018.7
20260905140948 30 219 0.0 1.6 0.00 0.00 0.00 69 1018.9
20260905140443 30 318 1.6 1.6 0.00 0.00 0.00 72 1018.7
20260905135942 30 290 1.6 3.2 0.00 0.00 0.00 74 1018.6
20260905135438 29 292 1.6 3.2 0.00 0.00 0.00 75 1018.7
20260905134933 29 325 1.6 3.2 0.00 0.00 0.00 75 1018.5
20260905134432 29 145 0.0 1.6 0.00 0.00 0.00 75 1018.9
20260905133931 27 288 0.0 1.6 0.00 0.00 0.00 79 1018.9
20260905133426 27 284 0.0 1.6 0.00 0.00 0.00 81 1018.7
20260905132926 27 290 1.6 1.6 0.00 0.00 0.00 81 1019.0
20260905132421 27 301 3.2 3.2 0.00 0.00 0.00 82 1018.9
20260905131916 26 269 1.6 1.6 0.00 0.00 0.00 83 1018.9
20260905131412 26 271 1.6 1.6 0.00 0.00 0.00 83 1019.0
20260905130906 26 283 1.6 1.6 0.00 0.00 0.00 83 1018.9
20260905130406 26 277 1.6 3.2 0.00 0.00 0.00 83 1018.7
20260905125901 26 205 0.0 1.6 0.00 0.00 0.00 85 1018.9
20260905125355 26 186 0.0 0.0 0.00 0.00 0.00 86 1019.0
20260905124851 25 186 0.0 1.6 0.00 0.00 0.00 87 1018.9